Regional Weather Roundup
Issued by NWS

Home | Current Version | Previous Version | Text Only | Print | Product List | Glossary On
Versions: 1 2 3 4 5 6 7 8 9 10 11 12 13 14 15 16 17 18 19 20 21 22 23 24 25 26 27 28 29 30 31 32 33 34 35 36 37 38 39 40 41 42 43 44 45 46 47 48 49 50
000
ASUS44 KOUN 300510
RWROK

WEATHER ROUNDUP FOR OKLAHOMA
NATIONAL WEATHER SERVICE NORMAN OK
1200 AM CDT TUE JUN 30 2015

NOTE: "FAIR" INDICATES FEW OR NO CLOUDS BELOW 12,000 FEET WITH NO
      SIGNIFICANT WEATHER AND/OR OBSTRUCTIONS TO VISIBILITY.

OKZ001>007-009>012-014-015-017-300600-
NORTHWEST OKLAHOMA AND THE PANHANDLE

CITY           SKY/WX    TMP DP  RH WIND       PRES   REMARKS
GAGE           CLEAR     72  59  63 S14       30.05R
GUYMON         CLEAR     71  53  52 S5        30.09S
ENID/WOODRING  CLEAR     70  61  73 CALM      29.98F
$$

OKZ016-021>023-033>039-044-045-300600-
SOUTHWEST OKLAHOMA

CITY           SKY/WX    TMP DP  RH WIND       PRES   REMARKS
LAWTON/REGL    CLOUDY    73  62  68 NW3       29.99R
LAWTON/FT SILL CLOUDY    74  62  66 NW3       29.98R
FREDERICK      CLOUDY    79  61  53 E14       29.96R
CLINTON        MOCLDY    72  62  71 W13       30.06R
HOBART         CLOUDY    71  66  84 NW8       30.04R
ALTUS AFB      CLEAR     75  62  62 W16       30.01R
$$

OKZ018>020-024>031-300600-
CENTRAL OKLAHOMA

CITY           SKY/WX    TMP DP  RH WIND       PRES   REMARKS
OKLAHOMA CITY  PTCLDY    74  61  63 NE9       30.00R
OKC/WILEY POST CLEAR     73  62  68 CALM      30.00R
OKC/TINKER AFB CLEAR     72  65  78 SE6       30.00R
STILLWATER     CLEAR     70  65  84 CALM      29.99S
GUTHRIE        CLEAR     72  64  76 CALM      29.99S
$$

OKZ008-013-054>072-300600-
NORTHEAST OKLAHOMA

CITY           SKY/WX    TMP DP  RH WIND       PRES   REMARKS
TULSA          CLOUDY    80  64  58 CALM      29.96S
TULSA/JONES    CLEAR     71  65  81 CALM      29.97F
PONCA CITY     CLEAR     70  63  78 CALM      29.98S
BARTLESVILLE   CLEAR     68  68 100 CALM      29.97S
MUSKOGEE       CLEAR     73  66  78 CALM      29.97S
$$

OKZ032-040>043-046>053-073>077-300600-
SOUTH CENTRAL/SOUTHEAST OKLAHOMA

CITY           SKY/WX    TMP DP  RH WIND       PRES   REMARKS
ARDMORE/DWNTWN CLOUDY    79  66  65 E15G21    30.01R
MCALESTER      MOCLDY    73  62  68 NW6       29.99R
$$



USA.gov is the U.S. government's official web portal to all federal, state and local government web resources and services.